"Pseudo-MPEC" for SZ01196

Created 2026 Mar 12 23:35:23 UT using Find_Orb

Click here for an explanation of pseudo-MPECs

 
 Astrometry: 
     SZ01196 0C2026 02 24.48491412 11 40.644-01 20 03.27   ~3BMZ 21.28GVNEOCPF51
     SZ01196 0C2026 02 24.50899112 11 38.287-01 19 44.29   ~3BMZ 22.17GVNEOCPF51
     SZ01196 0C2026 02 24.52105012 11 37.133-01 19 35.19   ~3BMZ 22.22GVNEOCPF51
     SZ01196*3C2026 03 09.91073 11 33 41.923+04 07 48.98   ~3BIo 20.8 GqNEOCP095
     SZ01196 3C2026 03 10.02611 11 33 07.022+04 12 32.16   ~3BIo 20.8 GqNEOCP095
     SZ01196 0C2026 03 10.48354411 30 50.781+04 31 57.05   ~3BMZ 20.66GVNEOCPF51
     SZ01196 0C2026 03 10.49622911 30 46.711+04 32 29.28   ~3BMZ 20.47GVNEOCPF51
     SZ01196 3C2026 03 10.89344 11 28 44.282+04 49 29.30   ~3BMK 20.5 GqNEOCP095
     SZ01196 3C2026 03 11.02986 11 27 59.203+04 55 31.90   ~3BMKx20.5 GqNEOCP095
     SZ01196 KC2026 03 11.96743 11 22 46.10 +05 39 05.7    ~3C1Z 19.9 VZNEOCPL04
     SZ01196 KC2026 03 12.00420 11 22 32.81 +05 40 51.9    ~3C1Z 20.1 VZNEOCPL04
     SZ01196  C2026 03 12.18956911 21 29.696+05 50 03.24   ~3C5K 20.6 GWNEOCPH01
     SZ01196  C2026 03 12.19399611 21 28.064+05 50 16.17   ~3C5K 20.7 GWNEOCPH01
     SZ01196  C2026 03 12.20626711 21 23.532+05 50 52.70   ~3C5K 20.2 GWNEOCPH01
     SZ01196  C2026 03 12.21018411 21 22.066+05 51 04.49   ~3C5K 20.2 GWNEOCPH01
     SZ01196 KB2026 03 12.81408911 17 40.89 +06 21 28.1    ~3CLK 20.2 GVNEOCPI93
     SZ01196 KB2026 03 12.83383511 17 33.25 +06 22 30.5    ~3CLK 20.6 GVNEOCPI93
     SZ01196 KB2026 03 12.85356011 17 25.65 +06 23 31.8    ~3CLK 20.6 GVNEOCPI93
     SZ01196 0C2026 03 12.90393311 17 06.205+06 26 13.43   ~3CNK 19.8 GXNEOCPR59
     SZ01196 KC2026 03 12.91697911 17 00.857+06 26 52.76   ~3CMZ 20.2 GWNEOCPB74
     SZ01196 KC2026 03 12.92123811 16 59.179+06 27 06.26   ~3CMZ 20.3 GWNEOCPB74
     SZ01196 KC2026 03 12.92623811 16 57.206+06 27 22.54   ~3CMZ 20.5 GWNEOCPB74
     SZ01196 0C2026 03 12.94032811 16 51.800+06 28 08.75   ~3CNK 19.8 GXNEOCPR59

Station data:
(095) Crimea-Nauchnij  (N44.726555 E34.016000)  Ukraine.  Observer S. Nazarov.
    Measurers A. Novichonok, A. Zhornichenko. 0.64-m reflector + CCD.
(B74) Santa Maria de Montmagastrell  (N41.720158 E1.105360)  Spain.  Observer
   J. M. Bosch. 0.4-m f/1.2 Schmidt-Cassegrain + CCD.
(F51) Pan-STARRS 1, Haleakala  (N20.707234 W156.255910)  US/Hawaii.
   Observers J. Herman, T. Lowe, P. Minguez, A. Schultz, I. Smith. Measurers
   K. Chambers, T. de Boer, J. Fairlamb, H. Gao, M. Huber, C.-C. Lin, E.
   Magnier, Y. Ramanjooloo, R. Wainscoat, R. Weryk. 1.8-m Ritchey-Chrétien +
   CCD.
(H01) Magdalena Ridge Observatory, Socorro  (N33.984833 W107.189333)  US/New
   Mexico.  Observers W. H. Ryan, E. V. Ryan. Measurer W. H. Ryan. 2.4-m
   f/8.9 reflector + CCD.
(I93) St Pardon de Conques  (N44.558670 W0.202960)  France.  Observers F.
   Losse, W. D'Anna. Measurer F. Losse. 0.40-m f/3.7 reflector + CCD.
(L04) ROASTERR-1 Observatory, Cluj-Napoca  (N46.820952 E23.596400)  Romania.
   Observer L. Hudin. 0.1-m f/9 refractor + CCD.
(R59) Camarasa Observatory, Astrocamp Nerpio  (N38.165429 W2.326580)  Spain.

Orbital elements:  SZ01196
   Perihelion 2026 May 26.440769 +/- 0.199 TT = 10:34:42.4 (JD 2461186.940769)
Epoch 2026 Mar 12.0 TT = JDT 2461111.5   Earth MOID: 0.0120   Ve: 0.0031
M 291.708789713 +/- 0.43            Me: 0.0479   Ma: 0.0778      AutoNEOCP
n   0.905229512 +/- 0.0034          Peri.  143.341718 +/- 0.0037
a   1.058352271 +/- 0.00266         Node   163.244249 +/- 0.030
e   0.59974019 +/- 0.00318          Incl.    1.920779 +/- 0.017
P   1.089/397.682d         H 23.39  G  0.15   U  8.9
q 0.423615874 +/- 0.00231    Q 1.693088668 +/- 0.00763    (J2000 ecliptic)
22 of 23 observations 2026 Feb. 24-Mar. 12; mean residual 0".32
Residuals in arcseconds: 
260224 F51  .06+  .18+    260311 095( 1.7+  .46-)   260312 I93  .37-  .75+    
260224 F51  .18-  .14+    260311 L04  .33-  .19-    260312 I93  .04+  .19+    
260224 F51  .14+  .30-    260312 L04  .22+  .53-    260312 R59  .21+  .55-    
260309 095  .14-  .64-    260312 H01  .05+  .05-    260312 B74  .08-  .04-    
260310 095  .70+  .03+    260312 H01  .07+  .26-    260312 B74  .03-  .05+    
260310 F51  .23-  .17+    260312 H01  .16+  .17-    260312 B74  .00   .59+    
260310 F51  .11-  .04-    260312 H01  .06-  .01-    260312 R59  .15-  .11+    
260310 095  1.0+  .09-    260312 I93  .34+  .20+    

Ephemerides (geocentric):
Date (UTC) HH   RA             Dec           delta  r     elong  mag " sig PA
---- --------  ------------   ------------  ------ ------ -----  --- --------
2026 03 13 00  11 16 27.980   +06 31 41.52  .18738 1.1806 175.1 20.5 .042 123
2026 03 13 01  11 16 11.934   +06 33 53.37  .18702 1.1802 175.0 20.5 .035 117
2026 03 13 02  11 15 55.825   +06 36 05.67  .18667 1.1799 174.9 20.5 .029 109
2026 03 13 03  11 15 39.655   +06 38 18.42  .18632 1.1795 174.7 20.5 .024  97
2026 03 13 04  11 15 23.421   +06 40 31.64  .18597 1.1791 174.6 20.5 .019  78
2026 03 13 05  11 15 07.125   +06 42 45.31  .18562 1.1788 174.5 20.5 .018  52
2026 03 13 06  11 14 50.765   +06 44 59.43  .18527 1.1784 174.4 20.5 .020  26
2026 03 13 07  11 14 34.341   +06 47 14.02  .18492 1.1780 174.3 20.5 .026   7
2026 03 13 08  11 14 17.854   +06 49 29.07  .18457 1.1777 174.2 20.5 .034 176
2026 03 13 09  11 14 01.303   +06 51 44.59  .18422 1.1773 174.1 20.5 .043 168
2026 03 13 10  11 13 44.687   +06 54 00.57  .18387 1.1769 173.9 20.5 .052 163
2026 03 13 11  11 13 28.007   +06 56 17.01  .18352 1.1766 173.8 20.5 .062 159
2026 03 13 12  11 13 11.261   +06 58 33.92  .18317 1.1762 173.7 20.5 .073 156
2026 03 13 13  11 12 54.451   +07 00 51.30  .18282 1.1758 173.6 20.5 .084 154
2026 03 13 14  11 12 37.575   +07 03 09.15  .18248 1.1754 173.5 20.5 .096 152
2026 03 13 15  11 12 20.633   +07 05 27.48  .18213 1.1751 173.4 20.5 .108 150
2026 03 13 16  11 12 03.625   +07 07 46.27  .18178 1.1747 173.2 20.5 .121 149
2026 03 13 17  11 11 46.550   +07 10 05.54  .18144 1.1743 173.1 20.5 .134 148
2026 03 13 18  11 11 29.409   +07 12 25.28  .18109 1.1740 173.0 20.5 .148 147
2026 03 13 19  11 11 12.201   +07 14 45.50  .18075 1.1736 172.9 20.5 .162 146
2026 03 13 20  11 10 54.926   +07 17 06.19  .18041 1.1732 172.8 20.5 .176 145
2026 03 13 21  11 10 37.583   +07 19 27.37  .18006 1.1729 172.6 20.5 .191 144
2026 03 13 22  11 10 20.173   +07 21 49.02  .17972 1.1725 172.5 20.5 .207 143
2026 03 13 23  11 10 02.694   +07 24 11.16  .17938 1.1721 172.4 20.5 .223 143
2026 03 14 00  11 09 45.147   +07 26 33.78  .17904 1.1717 172.3 20.5 .239 142
2026 03 14 01  11 09 27.531   +07 28 56.88  .17870 1.1714 172.1 20.5 .256 141
2026 03 14 02  11 09 09.846   +07 31 20.47  .17835 1.1710 172.0 20.5 .274 141
2026 03 14 03  11 08 52.092   +07 33 44.54  .17801 1.1706 171.9 20.5 .292 140
2026 03 14 04  11 08 34.268   +07 36 09.10  .17768 1.1703 171.8 20.5 .310 140
2026 03 14 05  11 08 16.374   +07 38 34.15  .17734 1.1699 171.7 20.5 .329 139
2026 03 14 06  11 07 58.410   +07 40 59.69  .17700 1.1695 171.5 20.5 .349 139
2026 03 14 07  11 07 40.376   +07 43 25.72  .17666 1.1691 171.4 20.5 .369 139
2026 03 14 08  11 07 22.271   +07 45 52.25  .17632 1.1688 171.3 20.5 .389 138
2026 03 14 09  11 07 04.094   +07 48 19.27  .17598 1.1684 171.2 20.5 .410 138
2026 03 14 10  11 06 45.846   +07 50 46.78  .17565 1.1680 171.0 20.5 .432 137
2026 03 14 11  11 06 27.527   +07 53 14.79  .17531 1.1676 170.9 20.5 .454 137
2026 03 14 12  11 06 09.135   +07 55 43.30  .17498 1.1673 170.8 20.5 .477 137
2026 03 14 13  11 05 50.671   +07 58 12.30  .17464 1.1669 170.6 20.5 .501 136
2026 03 14 14  11 05 32.135   +08 00 41.81  .17431 1.1665 170.5 20.5 .525 136
2026 03 14 15  11 05 13.525   +08 03 11.81  .17397 1.1662 170.4 20.5 .549 136
2026 03 14 16  11 04 54.842   +08 05 42.32  .17364 1.1658 170.3 20.5 .574 136
2026 03 14 17  11 04 36.086   +08 08 13.33  .17331 1.1654 170.1 20.5 .600 135
2026 03 14 18  11 04 17.255   +08 10 44.85  .17298 1.1650 170.0 20.5 .626 135
2026 03 14 19  11 03 58.350   +08 13 16.87  .17264 1.1647 169.9 20.5 .653 135
2026 03 14 20  11 03 39.371   +08 15 49.40  .17231 1.1643 169.7 20.5 .681 134
2026 03 14 21  11 03 20.317   +08 18 22.43  .17198 1.1639 169.6 20.5 .709 134
2026 03 14 22  11 03 01.187   +08 20 55.98  .17165 1.1635 169.5 20.5 .738 134
2026 03 14 23  11 02 41.982   +08 23 30.03  .17132 1.1632 169.4 20.5 .768 134